EW6762 Weather Reports


time (UTC)temp
C
wind
direction
speed
KPH
gust
KPH
rain 1hr
cm
rain 24hr
cm
rain mn
cm
humidity
%
barometer
mb
20260509031315 17 127 3.2 9.7 0.00 0.10 0.03 76 1016.8
20260509030337 17 113 4.8 8.0 0.00 0.10 0.03 76 1016.9
20260509025311 17 148 4.8 11.3 0.00 0.20 0.03 75 1016.9
20260509024332 17 140 6.4 11.3 0.00 0.20 0.03 76 1016.9
20260509023326 18 155 4.8 11.3 0.00 0.20 0.03 75 1016.9
20260509022324 18 144 4.8 12.9 0.00 0.20 0.03 74 1017.0
20260509021348 18 104 4.8 11.3 0.00 0.20 0.03 73 1016.8
20260509020321 18 136 4.8 12.9 0.00 0.20 0.03 71 1016.9
20260509015323 18 155 6.4 11.3 0.00 0.51 0.03 67 1016.8
20260509014322 19 153 1.6 4.8 0.00 0.51 0.03 65 1016.7
20260509013326 19 154 1.6 4.8 0.00 0.51 0.03 65 1016.4
20260509012321 19 163 1.6 4.8 0.00 0.51 0.03 63 1016.3
20260509011319 19 191 3.2 6.4 0.00 0.51 0.03 63 1016.2
20260509010320 20 171 1.6 6.4 0.00 0.51 0.03 62 1016.0
20260509005338 20 173 3.2 4.8 0.00 3.10 0.03 61 1016.0
20260509004317 20 189 1.6 4.8 0.00 3.10 0.03 60 1015.8
20260509003311 20 149 1.6 4.8 0.00 3.10 0.03 60 1015.7
20260509002309 20 103 1.6 4.8 0.00 3.10 0.03 59 1015.7
20260509001309 20 108 3.2 4.8 0.00 3.10 0.03 60 1015.5
20260509000352 21 153 1.6 4.8 0.00 3.10 0.03 59 1015.3
20260508235309 21 146 3.2 4.8 0.00 3.10 0.03 57 1015.4
20260508234326 21 147 3.2 4.8 0.00 3.10 0.03 56 1015.5
20260508233349 21 184 3.2 6.4 0.00 3.10 0.03 55 1015.5
20260508232330 21 132 1.6 6.4 0.00 3.10 0.03 55 1015.7
20260508231327 22 144 3.2 8.0 0.00 3.10 0.03 54 1015.4
20260508230348 22 144 1.6 6.4 0.00 3.10 0.03 55 1015.5
20260508225322 22 147 3.2 8.0 0.00 3.10 0.03 53 1015.6
20260508224323 22 144 3.2 9.7 0.00 3.10 0.03 51 1015.5
20260508223323 22 142 3.2 8.0 0.00 3.10 0.03 50 1015.4
20260508222345 23 119 3.2 6.4 0.00 3.10 0.03 49 1015.3
20260508221319 23 81 1.6 6.4 0.00 3.10 0.03 50 1015.3
20260508220317 23 121 4.8 11.3 0.00 3.10 0.03 48 1015.3
20260508215319 23 38 4.8 8.0 0.00 3.10 0.03 48 1015.2
20260508214315 24 95 6.4 12.9 0.00 3.10 0.03 46 1015.3
20260508213311 24 114 3.2 6.4 0.00 3.10 0.03 45 1015.0
20260508212313 25 96 3.2 9.7 0.00 3.10 0.03 44 1015.0
20260508211310 25 153 3.2 9.7 0.00 3.10 0.03 41 1015.1
20260508210315 26 102 4.8 11.3 0.00 3.10 0.03 42 1015.4
20260508205312 25 113 4.8 11.3 0.00 3.10 0.03 44 1015.5
20260508204309 25 140 4.8 12.9 0.00 3.10 0.03 41 1015.7
20260508203310 26 209 4.8 11.3 0.00 3.10 0.03 42 1015.8
20260508202323 25 203 4.8 9.7 0.00 3.10 0.03 42 1015.8
20260508201348 25 67 6.4 12.9 0.00 3.10 0.03 42 1015.8
20260508200323 25 75 4.8 16.1 0.00 3.10 0.03 41 1016.1
20260508195324 25 112 3.2 9.7 0.00 3.10 0.03 43 1016.0
20260508194315 25 293 3.2 8.0 0.00 3.10 0.03 45 1016.2
20260508193333 25 64 4.8 12.9 0.00 3.10 0.03 44 1016.3
20260508192309 24 119 6.4 11.3 0.00 3.10 0.03 44 1016.6
20260508191325 24 142 3.2 9.7 0.00 3.10 0.03 43 1016.6
20260508190328 24 254 4.8 8.0 0.00 3.10 0.03 42 1016.7
20260508185323 25 86 8.0 14.5 0.00 3.20 0.03 45 1016.7
20260508184319 24 193 3.2 9.7 0.00 3.20 0.03 47 1016.9
20260508183309 23 32 6.4 9.7 0.00 3.20 0.03 50 1017.1
20260508182310 23 5 1.6 9.7 0.00 3.20 0.03 43 1017.2
20260508181327 23 132 3.2 8.0 0.00 3.20 0.03 45 1017.5
20260508180328 23 271 3.2 11.3 0.00 3.20 0.03 42 1017.5
20260508175320 23 156 3.2 11.3 0.00 3.20 0.03 45 1017.6
20260508174314 23 142 1.6 12.9 0.00 3.20 0.03 42 1017.6
20260508173315 22 106 3.2 12.9 0.00 3.20 0.03 45 1017.8
20260508172356 23 142 4.8 12.9 0.00 3.20 0.03 47 1018.0
20260508171357 23 183 3.2 19.3 0.00 3.20 0.03 48 1018.0
20260508170331 23 160 6.4 17.7 0.00 3.20 0.03 45 1017.9
20260508165330 23 117 8.0 17.7 0.00 3.81 0.03 48 1018.0
20260508164339 22 41 4.8 14.5 0.00 3.81 0.03 51 1018.3
20260508163339 22 18 8.0 16.1 0.00 3.81 0.03 51 1018.6
20260508162311 22 78 4.8 14.5 0.00 3.81 0.03 53 1018.6
20260508161317 21 128 9.7 16.1 0.00 3.81 0.03 51 1018.6
20260508160311 22 325 4.8 19.3 0.00 3.81 0.03 53 1018.7
20260508155330 22 72 6.4 16.1 0.00 4.29 0.03 54 1018.8
20260508154320 22 144 6.4 16.1 0.00 4.29 0.03 56 1018.9
20260508153316 21 65 6.4 14.5 0.00 4.29 0.03 59 1018.8
20260508152351 21 38 11.3 19.3 0.00 4.29 0.03 57 1018.8
20260508151318 20 113 8.0 16.1 0.00 4.29 0.03 64 1018.8
20260508150334 20 342 6.4 14.5 0.00 4.29 0.03 67 1018.9
20260508145321 19 347 9.7 19.3 0.00 5.00 0.03 63 1018.9
20260508144338 19 355 3.2 17.7 0.00 5.00 0.03 70 1019.0
20260508143326 18 5 4.8 16.1 0.00 5.00 0.03 66 1018.8
20260508142324 18 325 11.3 17.7 0.10 5.00 0.03 68 1018.8
20260508141316 18 31 4.8 11.3 0.10 5.00 0.03 73 1018.8
20260508140332 17 346 3.2 12.9 0.10 5.00 0.03 79 1018.8
20260508135319 17 344 6.4 11.3 0.10 5.00 0.03 79 1018.9
20260508134335 16 26 3.2 14.5 0.10 5.00 0.03 80 1018.8
20260508133324 16 285 3.2 12.9 0.10 5.00 0.03 85 1018.7
20260508132319 15 18 3.2 9.7 0.00 4.90 0.00 89 1018.6
20260508131308 14 355 4.8 12.9 0.00 4.90 0.00 91 1018.5
20260508130324 14 348 4.8 12.9 0.00 4.90 0.00 92 1018.4
20260508125318 13 281 6.4 12.9 0.00 5.00 0.00 94 1018.4
20260508124312 13 360 3.2 9.7 0.00 5.00 0.00 94 1018.4
20260508123317 13 338 4.8 9.7 0.00 5.00 0.00 95 1018.4
20260508122342 13 349 3.2 12.9 0.00 5.00 0.00 95 1018.1
20260508121315 13 282 4.8 8.0 0.00 5.00 0.00 96 1018.0
20260508120333 13 321 3.2 6.4 0.00 5.00 0.00 96 1017.9
20260508115308 13 325 1.6 8.0 0.00 5.59 0.00 96 1017.8
20260508114310 13 347 3.2 6.4 0.00 5.59 0.00 96 1017.9
20260508113350 13 321 1.6 6.4 0.00 5.59 0.00 96 1017.7
20260508112323 13 284 3.2 6.4 0.00 5.59 0.00 96 1017.6
20260508111314 13 311 1.6 6.4 0.00 5.59 0.00 96 1017.3
20260508110312 13 309 1.6 6.4 0.00 5.59 0.00 96 1017.1
20260508105326 13 333 3.2 6.4 0.00 5.99 0.00 96 1017.0
20260508104325 13 291 3.2 6.4 0.00 5.99 0.00 96 1016.9
20260508103318 13 339 1.6 8.0 0.00 5.99 0.00 96 1016.6
20260508102315 13 312 3.2 6.4 0.00 5.99 0.00 96 1016.6
20260508101314 12 343 1.6 4.8 0.00 5.99 0.00 96 1016.5
20260508100310 12 350 1.6 8.0 0.00 5.99 0.00 96 1016.3
20260508095325 12 332 1.6 6.4 0.00 6.91 0.00 96 1016.1
20260508094320 12 5 4.8 8.0 0.00 6.91 0.00 95 1015.9
20260508093311 12 285 3.2 8.0 0.00 6.91 0.00 95 1015.9
20260508092333 13 304 3.2 4.8 0.00 6.91 0.00 95 1016.1
20260508091310 12 316 0.0 6.4 0.00 6.91 0.00 96 1015.8
20260508090332 12 347 3.2 6.4 0.00 6.91 0.00 95 1015.9
20260508085309 12 342 1.6 3.2 0.00 8.99 0.00 95 1015.9
20260508084320 12 281 0.0 4.8 0.00 8.99 0.00 95 1015.6
20260508083322 12 298 1.6 3.2 0.00 8.99 0.00 95 1015.5
20260508082312 13 321 0.0 3.2 0.00 8.99 0.00 95 1015.3
20260508081309 13 321 1.6 3.2 0.00 8.99 0.00 95 1015.4
20260508080325 13 311 1.6 3.2 0.00 8.99 0.00 95 1015.1
20260508075327 13 296 1.6 3.2 0.00 9.50 0.00 95 1015.1
20260508074318 13 284 1.6 3.2 0.00 9.50 0.00 95 1015.0
20260508073312 13 277 3.2 4.8 0.00 9.50 0.00 95 1014.9
20260508072311 13 302 1.6 3.2 0.00 9.50 0.00 95 1014.8
20260508071332 13 252 1.6 3.2 0.00 9.50 0.00 95 1014.8
20260508070348 13 265 1.6 4.8 0.00 9.50 0.00 95 1014.8
20260508065329 13 300 0.0 3.2 0.00 9.50 0.00 95 1014.6
20260508064326 13 300 1.6 3.2 0.00 9.50 0.00 95 1014.8
20260508063320 13 300 1.6 1.6 0.00 9.50 0.00 94 1014.7
20260508062321 13 300 0.0 1.6 0.00 9.50 0.00 94 1014.6
20260508061317 13 300 0.0 3.2 0.00 9.50 0.00 95 1014.6
20260508060313 13 300 0.0 1.6 0.00 9.50 0.00 94 1014.7
20260508055317 13 300 0.0 1.6 0.00 9.60 0.00 94 1014.7
20260508054314 13 300 1.6 3.2 0.00 9.60 0.00 95 1014.8
20260508053317 13 314 1.6 3.2 0.00 9.60 0.00 95 1014.8
20260508052333 13 321 1.6 1.6 0.00 9.60 0.00 94 1014.8
20260508051313 13 310 0.0 1.6 0.00 9.60 0.00 94 1014.7
20260508050326 13 310 1.6 3.2 0.00 9.60 0.00 94 1014.7
20260508045329 13 310 0.0 3.2 0.00 10.01 0.00 94 1014.4
20260508044323 13 308 1.6 3.2 0.00 10.01 0.00 94 1014.5
20260508043317 13 310 0.0 3.2 0.00 10.01 0.00 94 1014.4
20260508042338 13 310 1.6 4.8 0.00 10.01 0.00 94 1014.3
20260508041309 13 329 3.2 6.4 0.00 10.01 0.00 94 1014.1
20260508040327 14 345 1.6 6.4 0.00 10.01 0.00 94 1014.4
20260508035321 14 355 1.6 6.4 0.00 10.31 2.54 94 1014.3
20260508034325 14 306 1.6 6.4 0.00 10.31 2.54 94 1014.2
20260508033320 14 342 3.2 6.4 0.00 10.31 2.54 94 1014.1
20260508032313 13 278 3.2 6.4 0.00 10.31 2.54 94 1014.1